Le nostre stazioni meteo in Italia

Pubblicità
Il mio iltempo24.it
Decimomannu, Italia (16546): Temperatura & dewpoint: 15.01.2020 03:00:00 - 21.01.2020 03:00:00 (CET)Decimomannu, Italia (16546): velocità del vento: 15.01.2020 03:00:00 - 21.01.2020 03:00:00 (CET)Decimomannu, Italia (16546): direzione del vento: 15.01.2020 03:00:00 - 21.01.2020 03:00:00 (CET)Decimomannu, Italia (16546): reduced air pressure: 15.01.2020 03:00:00 - 21.01.2020 03:00:00 (CET)Decimomannu, Italia (16546): visibility: 15.01.2020 03:00:00 - 21.01.2020 03:00:00 (CET)
Data & Tempo tt [°C] td [°C] ff [km/h] ff [kn] dd ppp [hPa] vv [km]
21.01.2020 03:00:00 14,0 10,0 26 14 ESE - 10
21.01.2020 02:00:00 14,0 10,0 28 15 ESE - 10
21.01.2020 01:00:00 14,4 9,8 29 16 ESE 1027,6 15
21.01.2020 00:00:00 14,0 10,0 28 15 ESE - 10
20.01.2020 23:00:00 15,0 11,0 28 15 E - 10
20.01.2020 22:00:00 14,8 11,0 28 15 ESE 1027,1 10
20.01.2020 21:00:00 15,0 11,0 28 15 ESE - 10
20.01.2020 20:00:00 15,0 12,0 29 16 ESE - 10
20.01.2020 19:00:00 14,0 11,9 34 18 ESE 1024,9 10
20.01.2020 18:00:00 14,0 12,0 37 20 ESE - 8
20.01.2020 17:00:00 14,0 12,0 28 15 ESE - 7
20.01.2020 16:00:00 13,6 12,3 28 15 ESE 1023,7 6
20.01.2020 15:00:00 13,0 12,0 16 9 E - 8
20.01.2020 14:00:00 14,0 12,0 21 11 E - 7
20.01.2020 13:00:00 12,0 11,2 18 10 E 1023,7 5
20.01.2020 12:00:00 13,0 12,0 16 9 E - 7
20.01.2020 11:00:00 13,0 12,0 21 11 ESE - 10
20.01.2020 10:00:00 11,8 9,0 18 10 E 1022,7 10
20.01.2020 09:00:00 12,0 10,0 21 11 E - 8
20.01.2020 08:00:00 12,0 9,0 21 11 ESE - 8
20.01.2020 07:00:00 13,0 10,2 26 14 ESE 1020,2 10
20.01.2020 06:00:00 13,0 10,0 22 12 ESE - 10
20.01.2020 05:00:00 12,0 9,0 18 10 E - 10
20.01.2020 04:00:00 11,0 8,2 18 10 E 1019,9 14
20.01.2020 03:00:00 10,0 9,0 18 10 E - 10
20.01.2020 02:00:00 12,0 9,0 18 10 SE - 10
20.01.2020 01:00:00 12,0 8,3 18 10 E 1020,3 10
20.01.2020 00:00:00 12,0 8,0 11 6 ESE - 10
19.01.2020 23:00:00 12,0 8,0 15 8 ESE - 10
19.01.2020 22:00:00 11,4 7,7 13 7 ESE 1019,8 14
19.01.2020 21:00:00 11,0 8,0 11 6 ESE - 10
19.01.2020 20:00:00 12,0 8,0 16 9 E - 10
19.01.2020 19:00:00 11,2 9,3 15 8 E 1019,2 18
19.01.2020 18:00:00 12,0 8,0 11 6 E - 10
19.01.2020 17:00:00 13,0 8,0 16 9 E - 10
19.01.2020 16:00:00 13,8 9,1 15 8 ESE 1019,2 20
19.01.2020 15:00:00 14,0 9,0 15 8 SSE - 10
19.01.2020 14:00:00 15,0 7,0 13 7 SSE - 10
19.01.2020 13:00:00 16,2 8,2 21 11 SE 1019,4 20
19.01.2020 12:00:00 15,0 10,0 15 8 ESE - 10
19.01.2020 11:00:00 14,0 11,0 8 4 ESE - 10
19.01.2020 10:00:00 9,4 6,7 4 2 N 1020,6 20
19.01.2020 09:00:00 7,0 5,0 4 2 NO - 10
19.01.2020 08:00:00 7,0 5,0 4 2 NNE - 10
19.01.2020 07:00:00 7,0 5,0 2 1 ESE 1020,9 12
19.01.2020 06:00:00 7,0 5,0 8 4 E - 10
19.01.2020 05:00:00 7,0 5,0 4 2 ESE - 10
19.01.2020 04:00:00 7,2 5,5 4 2 E 1022,2 12
19.01.2020 03:00:00 7,0 6,0 5 3 ENE - 10
19.01.2020 02:00:00 8,0 7,0 2 1 E - 10
19.01.2020 01:00:00 8,0 7,1 2 1 O 1023,1 12
19.01.2020 00:00:00 9,0 8,0 5 3 S - 10
18.01.2020 23:00:00 9,0 8,0 4 2 ENE - 10
18.01.2020 22:00:00 9,0 7,4 8 4 NE 1024,5 12
18.01.2020 21:00:00 11,0 9,0 5 3 NNO - 10
18.01.2020 20:00:00 11,0 8,0 8 4 NO - 10
18.01.2020 19:00:00 11,2 7,5 15 8 NO 1024,9 14
18.01.2020 18:00:00 11,0 7,0 5 3 NNO - 10
18.01.2020 17:00:00 12,0 6,0 16 9 ONO - 10
18.01.2020 16:00:00 14,0 5,6 26 14 ONO 1025,1 25
18.01.2020 15:00:00 15,0 6,0 34 18 ONO - 10
18.01.2020 14:00:00 14,0 6,0 31 17 ONO - 10
18.01.2020 13:00:00 14,4 5,0 35 19 ONO 1026,9 25
18.01.2020 12:00:00 15,0 4,0 41 22 NO - 10
18.01.2020 11:00:00 14,0 6,0 24 13 NO - 10
18.01.2020 10:00:00 13,0 7,2 15 8 ONO 1027,4 16
18.01.2020 09:00:00 11,0 7,0 4 2 SO - 10
18.01.2020 08:00:00 9,0 6,0 4 2 O - 10
18.01.2020 07:00:00 9,6 6,7 5 3 E 1026,6 12
18.01.2020 06:00:00 10,0 7,0 11 6 ONO - 10
18.01.2020 05:00:00 11,0 7,0 11 6 ONO - 10
18.01.2020 04:00:00 11,0 7,7 15 8 NO 1026,5 12
18.01.2020 03:00:00 11,0 10,0 8 4 NO - 10
18.01.2020 02:00:00 11,0 10,0 9 5 ONO - 10
18.01.2020 01:00:00 10,8 9,2 4 2 NNO 1026,4 12
18.01.2020 00:00:00 10,0 8,0 8 4 SSO - 10
17.01.2020 23:00:00 10,0 8,0 2 1 SSE - 10
17.01.2020 22:00:00 9,6 8,4 2 1 S 1027,8 12
17.01.2020 21:00:00 9,0 8,0 2 1 S - 10
17.01.2020 20:00:00 11,0 9,0 4 2 SSO - 10
17.01.2020 19:00:00 13,0 10,0 5 3 O 1027,5 20
17.01.2020 18:00:00 - - - - - - -
17.01.2020 17:00:00 15,0 8,0 11 6 NNO - 10
17.01.2020 16:00:00 16,0 6,4 9 5 O 1026,8 20
17.01.2020 15:00:00 16,0 6,0 5 3 ONO - 10
17.01.2020 14:00:00 16,0 7,0 5 3 N - 10
17.01.2020 13:00:00 15,8 7,8 4 2 ONO 1028,1 20
17.01.2020 12:00:00 14,0 8,0 5 3 NO - 10
17.01.2020 11:00:00 11,0 7,0 5 3 N - 10
17.01.2020 10:00:00 9,2 6,6 5 3 N 1028,9 20
17.01.2020 09:00:00 8,0 6,0 5 3 NO - 10
17.01.2020 08:00:00 8,0 6,0 4 2 NNO - 10
17.01.2020 07:00:00 8,0 6,5 4 2 O 1028,2 10
17.01.2020 06:00:00 8,0 6,0 4 2 ONO - 10
17.01.2020 05:00:00 6,0 5,0 5 3 N - 10
17.01.2020 04:00:00 5,6 4,4 8 4 N 1028,9 10
17.01.2020 03:00:00 6,0 5,0 5 3 O - 10
17.01.2020 02:00:00 6,0 5,0 4 2 OSO - 10
17.01.2020 01:00:00 6,0 5,0 8 4 NNE 1029,0 12
17.01.2020 00:00:00 6,0 5,0 5 3 N - 10
16.01.2020 23:00:00 7,0 6,0 4 2 NNO - 10
16.01.2020 22:00:00 8,6 7,0 4 2 SE 1029,9 10
16.01.2020 21:00:00 9,0 7,0 8 4 ENE - 10
16.01.2020 20:00:00 9,0 7,0 5 3 NE - 10
16.01.2020 19:00:00 11,0 7,3 2 1 NE 1029,1 12
16.01.2020 18:00:00 11,0 7,0 5 3 SE - 10
16.01.2020 17:00:00 12,0 7,0 5 3 SSE - 10
16.01.2020 16:00:00 14,0 6,6 4 2 SSE 1028,6 20
16.01.2020 15:00:00 15,0 6,0 11 6 SE - 10
16.01.2020 14:00:00 16,0 7,0 8 4 SE - 10
16.01.2020 13:00:00 12,0 7,3 4 2 E 1029,7 8
16.01.2020 12:00:00 9,0 6,0 4 2 NO - 7
16.01.2020 11:00:00 7,0 5,0 4 2 O - 7
16.01.2020 10:00:00 6,0 3,2 8 4 N 1030,7 7
16.01.2020 09:00:00 4,0 1,0 4 2 ONO - 6
16.01.2020 08:00:00 3,0 0,0 9 5 N - 7
16.01.2020 07:00:00 1,8 -1,1 5 3 NNE 1030,2 12
16.01.2020 06:00:00 2,0 -1,0 5 3 O - 10
16.01.2020 05:00:00 3,0 0,0 4 2 ONO - 10
16.01.2020 04:00:00 3,0 0,4 8 4 NNO 1030,0 15
16.01.2020 03:00:00 3,0 1,0 5 3 NO - 10
16.01.2020 02:00:00 3,0 1,0 9 5 NO - 10
16.01.2020 01:00:00 3,0 1,2 5 3 O 1029,7 15
16.01.2020 00:00:00 5,0 3,0 4 2 NNE - 10
15.01.2020 23:00:00 5,0 3,0 5 3 NO - 10
15.01.2020 22:00:00 5,0 3,8 2 1 SE 1029,6 15
15.01.2020 21:00:00 6,0 5,0 4 2 E - 10
15.01.2020 20:00:00 7,0 6,0 5 3 E - 10
15.01.2020 19:00:00 9,8 8,7 8 4 E 1028,6 10
15.01.2020 18:00:00 12,0 10,0 11 6 SE - 10
15.01.2020 17:00:00 13,0 9,0 9 5 SSE - 10
15.01.2020 16:00:00 15,4 9,3 9 5 SSE 1027,8 20
15.01.2020 15:00:00 16,0 9,0 13 7 SSE - 10
15.01.2020 14:00:00 16,0 9,0 13 7 SSE - 10
15.01.2020 13:00:00 16,0 8,7 15 8 SSE 1029,3 10
15.01.2020 12:00:00 15,0 9,0 5 3 SSE - 10
15.01.2020 11:00:00 11,0 7,0 4 2 NO - 10
15.01.2020 10:00:00 7,8 4,7 5 3 NNO 1028,8 10
15.01.2020 09:00:00 3,0 1,0 5 3 ONO - 10
15.01.2020 08:00:00 2,0 0,0 5 3 NNO - 5
15.01.2020 07:00:00 2,0 -0,3 4 2 O 1027,4 4,0
15.01.2020 06:00:00 2,0 0,0 5 3 O - 8
15.01.2020 05:00:00 2,0 0,0 4 2 ONO - 10
15.01.2020 04:00:00 2,6 0,3 5 3 N 1027,9 10
15.01.2020 03:00:00 3,0 1,0 5 3 O - 10

tt = Temperatura
td = dewpoint
ff = velocità del vento
dd = direzione del vento
ppp = reduced air pressure
vv = visibility

Stazioni seguenti

WeatherPro
AMSI
MeteoEarth